Notices

What's New in latest Release from April 7th, 2021:

- Updated Glossary, including Speed of Maximum Gust, and Total Hourly Precipitation

- Updated national and regional climate services offices contacts and prices information

- Addition of station inventory lists for 1981-2010, 1971-2000, and 1961-1990 Normals.

If you haven't already, please take our survey and provide feedback about our website: https://eccc.sondage-survey.ca/f/LanguageSelection.aspx?s=442ca660-fcf1-47c0-95a9-59707d6fd709

Hourly Data Report for March 24, 2017

MIRAMICHI RCS
NEW BRUNSWICK

47°00'34.000" N
65°27'54.000" W
33.00 m
8100989
71744
ACQ

Download Data

Hourly Data (March 2017)
Hourly Data Report for March 24, 2017
TIME
LST
Temp Definition
°C
Dew Point Definition
°C
Rel Hum Definition
%
Precip. Amount Definition
mm

Wind Dir Definition
10's deg

Wind Spd Definition
km/h
Visibility Definition
km
Stn Press Definition
kPa
Hmdx Definition


Wind Chill Definition


Weather Definition


00:00 -11.0 -18.7 53 0.0 27 10   102.23   -16 LegendNANA
01:00 -10.8 -19.1 50 0.0 26 10   102.26   -16 LegendNANA
02:00 -12.0 -19.3 54 0.0 26 11   102.35   -18 LegendNANA
03:00 -13.5 -19.6 60 0.0 24 8   102.36   -19 LegendNANA
04:00 -15.4 -20.1 67 0.0 25 4   102.36   -18 LegendNANA
05:00 -14.4 -20.2 62 0.0 27 9   102.39   -20 LegendNANA
06:00 -15.3 -20.3 66 0.0 26 6   102.44   -20 LegendNANA
07:00 -13.6 -19.7 60 0.0 26 9   102.48   -19 LegendNANA
08:00 -11.9 -19.3 54 0.0 25 10   102.47   -18 LegendNANA
09:00 -8.6 -18.0 46 0.0 25 10   102.46   -14 LegendNANA
10:00 -5.4 -17.6 38 0.0 23 13   102.38   -11 LegendNANA
11:00 -3.3 -16.1 36 0.0 23 20   102.26   -9 LegendNANA
12:00 -1.7 -14.5 37 0.0 23 24   102.15   -8 LegendNANA
13:00 -1.5 -14.6 36 0.0 23 28   102.02   -8 LegendNANA
14:00 -1.2 -14.3 36 0.0 23 27   101.88   -8 LegendNANA
15:00 -1.5 -13.5 40 0.0 22 37   101.80   -9 LegendNANA
16:00 -1.5 -13.0 41 0.0 21 34   101.68   -9 LegendNANA
17:00 -1.7 -10.2 52 0.0 22 34   101.57   -9 LegendNANA
18:00 -1.9 -9.4 56 0.0 22 30   101.53   -9 LegendNANA
19:00 -2.1 -7.9 64 0.0 23 22   101.47   -8 LegendNANA
20:00 -2.1 -6.3 73 0.0 22 22   101.42   -8 LegendNANA
21:00 -1.8 -5.5 76 0.0 23 22   101.35   -8 LegendNANA
22:00 -1.7 -4.8 79 0.0 23 16   101.29   -7 LegendNANA
23:00 -1.8 -4.5 82 0.0 23 17   101.21   -7 LegendNANA

Notes on Data Quality.

Legend

  • E = Estimated
  • M = Missing
  • NA = Not Available*
  • [empty] = Indicates an unobserved value
Date modified: